Regional Weather Roundup
Issued by NWS

Home | Current Version | Previous Version | Graphics & Text | Print | Product List | Glossary On
Versions: 1 2 3 4 5 6 7 8 9 10 11 12 13 14 15 16 17 18 19 20 21 22 23 24 25 26 27 28 29 30 31 32 33 34 35 36 37 38 39 40 41 42 43 44 45 46 47 48 49 50
000
ASUS43 KOAX 281910
RWRNE

WEATHER ROUNDUP FOR NEBRASKA
NATIONAL WEATHER SERVICE OMAHA NE
200 PM CDT SAT MAR 28 2015

NOTES: SATELLITE DATA IS BEING USED TO AUGMENT CLOUD COVER ABOVE
       12000 FEET.
       "FAIR" INDICATES FEW OR NO CLOUDS BELOW 12,000 FEET WITH NO
       SIGNIFICANT WEATHER AND/OR OBSTRUCTIONS TO VISIBILITY.

  * THESE STATIONS DO NOT REPORT WEATHER SUCH AS RAIN...SNOW OR FOG.

NEZ001>004-019>022-054>056-282000-
NEBRASKA PANHANDLE

CITY           SKY/WX    TMP DP  RH WIND       PRES   REMARKS
SCOTTSBLUFF    SUNNY     78  25  14 W23G35    29.88F
ALLIANCE       SUNNY     76  30  18 W16G24    29.88F
CHADRON        SUNNY     77  34  21 SW8       29.81F
KIMBALL        SUNNY     76  25  14 W20G28    29.94F
SIDNEY         SUNNY     76  27  16 NW12G25   29.94F
$$

NEZ057>060-069>072-079>082-282000-
SOUTHWEST NEBRASKA

CITY           SKY/WX    TMP DP  RH WIND       PRES   REMARKS
NORTH PLATTE   SUNNY     72  36  26 S15       29.94F
IMPERIAL         N/A     74  34  23 S10G18    29.95F
LEXINGTON      SUNNY     65  34  31 SE15      29.98F
MCCOOK         SUNNY     73  36  25 S13       29.97F
OGALLALA       SUNNY     76  32  20 S9        29.93F
$$

NEZ005>010-023>029-035>040-094-282000-
NORTH CENTRAL NEBRASKA

CITY           SKY/WX    TMP DP  RH WIND       PRES   REMARKS
VALENTINE      SUNNY     70  35  27 S16       29.88F
AINSWORTH      SUNNY     65  34  31 S15       29.92F
BROKEN BOW     SUNNY     63  35  35 SE15      29.97F
O`NEILL        SUNNY     55  33  43 S17G23    29.98F
ORD            SUNNY     57  29  34 SE14G21   29.99F
THEDFORD       SUNNY     72  37  28 S16       29.92F
$$

NEZ041-046>049-061>064-073>077-083>087-282000-
SOUTH CENTRAL NEBRASKA

CITY           SKY/WX    TMP DP  RH WIND       PRES   REMARKS
GRAND ISLAND   SUNNY     55  32  41 SE13      30.04F
AURORA         SUNNY     55  33  43 SE16      30.05F
HASTINGS       SUNNY     57  32  38 SE12G20   30.02F
HEBRON         SUNNY     56  30  37 E8G16     30.06F
HOLDREGE       SUNNY     63  32  31 SE14G20   30.00F
KEARNEY *      SUNNY     61  34  36 SE15      30.01F
YORK           SUNNY     52  34  50 SE12G18   30.07S
$$

NEZ011>018-030>034-042>045-282000-
NORTHEAST NEBRASKA

CITY           SKY/WX    TMP DP  RH WIND       PRES   REMARKS
NORFOLK        SUNNY     49  33  54 SE20      30.05F
ALBION         SUNNY     51  29  42 SE15      30.04F
BLAIR          SUNNY     51  28  41 SE13G20   30.11F
COLUMBUS *     SUNNY     50  30  46 SE15      30.09F
FREMONT        SUNNY     51  28  41 SE15G22   30.11F
TEKAMAH        SUNNY     53  26  35 SE17G28   30.11F
WAYNE          SUNNY     51  29  43 S20       30.08F
$$

NEZ050>053-065>068-078-088>093-282000-
SOUTHEAST NEBRASKA

CITY           SKY/WX    TMP DP  RH WIND       PRES   REMARKS
LINCOLN        SUNNY     52  31  44 SE13      30.11F
OMAHA EPPLEY   MOSUNNY   50  28  42 S17       30.13F
BEATRICE       SUNNY     52  32  47 SE13G22   30.09F
FALLS CITY     SUNNY     51  30  44 E17       30.13F
NEBRASKA CITY  SUNNY     49  27  42 S12G17    30.13F
PLATTSMOUTH    SUNNY     50  26  39 SE12G18   30.12F
$$

NEZ044-045-051>053-067-282000-
OMAHA AREA

CITY           SKY/WX    TMP DP  RH WIND       PRES   REMARKS
OMAHA EPPLEY   MOSUNNY   50  28  42 S17       30.13F
BLAIR          SUNNY     51  28  41 SE13G20   30.11F
FREMONT        SUNNY     51  28  41 SE15G22   30.11F
MILLARD        SUNNY     49  29  44 SE13      30.12F
OFFUTT AFB     SUNNY     51  28  41 SE10G25   30.12F
PLATTSMOUTH    SUNNY     50  26  39 SE12G18   30.12F
WAHOO          FAIR      50  28  43 SE17      30.10F
$$



USA.gov is the U.S. government's official web portal to all federal, state and local government web resources and services.